TimeCDT,TemperatureF,Dew PointF,Humidity,Sea Level PressureIn,VisibilityMPH,Wind Direction,Wind SpeedMPH,Gust SpeedMPH,PrecipitationIn,Events,Conditions,WindDirDegrees,DateUTC
12:15 AM,76.5,71.8,85,30.00,10.0,West,3.5,-,N/A,,Clear,270,2013-08-29 05:15:00
12:35 AM,77.0,71.8,84,30.01,10.0,Calm,Calm,-,N/A,,Clear,0,2013-08-29 05:35:00
12:55 AM,76.6,71.6,84,30.01,10.0,WSW,4.6,-,N/A,,Clear,250,2013-08-29 05:55:00
1:15 AM,75.4,71.8,89,30.01,10.0,WSW,4.6,-,N/A,,Clear,240,2013-08-29 06:15:00
1:35 AM,74.7,71.2,89,30.01,10.0,WSW,5.8,-,N/A,,Clear,240,2013-08-29 06:35:00
1:55 AM,74.3,72.0,92,30.00,10.0,WSW,6.9,-,N/A,,Clear,250,2013-08-29 06:55:00
2:15 AM,74.1,72.0,93,30.00,10.0,WSW,6.9,-,N/A,,Clear,240,2013-08-29 07:15:00
2:35 AM,73.6,72.0,95,30.00,10.0,WSW,5.8,-,N/A,,Clear,240,2013-08-29 07:35:00
2:55 AM,74.3,72.5,94,30.00,10.0,WSW,5.8,-,N/A,,Clear,250,2013-08-29 07:55:00
3:15 AM,74.3,72.5,94,30.00,10.0,WSW,4.6,-,N/A,,Clear,250,2013-08-29 08:15:00
3:35 AM,73.6,72.0,95,29.99,10.0,WSW,5.8,-,N/A,,Clear,250,2013-08-29 08:35:00
3:55 AM,74.5,72.5,94,29.99,10.0,West,5.8,-,N/A,,Clear,260,2013-08-29 08:55:00
4:15 AM,74.7,72.5,93,29.99,10.0,West,4.6,-,N/A,,Scattered Clouds,260,2013-08-29 09:15:00
4:35 AM,75.2,72.5,91,29.99,10.0,West,5.8,-,N/A,,Scattered Clouds,260,2013-08-29 09:35:00
4:55 AM,75.6,72.7,91,29.99,10.0,West,6.9,-,N/A,,Mostly Cloudy,260,2013-08-29 09:55:00
5:15 AM,75.2,72.5,91,30.00,10.0,West,5.8,-,N/A,,Mostly Cloudy,260,2013-08-29 10:15:00
5:35 AM,75.2,72.5,91,30.00,10.0,West,5.8,-,N/A,,Mostly Cloudy,260,2013-08-29 10:35:00
5:55 AM,75.2,72.5,91,30.01,10.0,Calm,Calm,-,N/A,,Mostly Cloudy,0,2013-08-29 10:55:00
6:15 AM,74.7,72.5,93,30.01,10.0,West,3.5,-,N/A,,Overcast,260,2013-08-29 11:15:00
6:35 AM,74.3,72.5,94,30.02,7.0,WSW,3.5,-,N/A,,Overcast,250,2013-08-29 11:35:00
6:55 AM,74.7,72.7,94,30.02,10.0,Calm,Calm,-,N/A,,Overcast,0,2013-08-29 11:55:00
7:15 AM,75.2,73.0,93,30.03,10.0,West,3.5,-,N/A,,Mostly Cloudy,260,2013-08-29 12:15:00
7:35 AM,76.1,73.6,92,30.03,10.0,West,4.6,-,N/A,,Overcast,260,2013-08-29 12:35:00
7:55 AM,77.0,73.6,89,30.03,10.0,West,4.6,-,N/A,,Mostly Cloudy,260,2013-08-29 12:55:00
8:15 AM,78.6,73.6,84,30.02,10.0,WSW,4.6,-,N/A,,Scattered Clouds,250,2013-08-29 13:15:00
8:35 AM,80.1,74.1,82,30.02,10.0,West,3.5,-,N/A,,Clear,260,2013-08-29 13:35:00
8:55 AM,81.5,74.5,79,30.02,10.0,West,4.6,-,N/A,,Scattered Clouds,270,2013-08-29 13:55:00
9:15 AM,82.0,74.5,78,30.02,10.0,West,5.8,-,N/A,,Scattered Clouds,270,2013-08-29 14:15:00
9:35 AM,82.9,74.5,75,30.03,10.0,West,5.8,-,N/A,,Clear,270,2013-08-29 14:35:00
9:55 AM,84.0,75.2,75,30.04,10.0,West,4.6,-,N/A,,Clear,260,2013-08-29 14:55:00
10:15 AM,85.5,75.4,72,30.04,10.0,NW,3.5,-,N/A,,Clear,310,2013-08-29 15:15:00
10:35 AM,86.5,75.6,70,30.03,10.0,West,4.6,-,N/A,,Clear,280,2013-08-29 15:35:00
10:55 AM,87.3,75.4,68,30.03,10.0,WNW,5.8,-,N/A,,Clear,290,2013-08-29 15:55:00
11:15 AM,87.8,75.2,66,30.03,10.0,WNW,3.5,-,N/A,,Clear,300,2013-08-29 16:15:00
11:35 AM,89.1,75.0,63,30.03,10.0,NW,4.6,-,N/A,,Clear,320,2013-08-29 16:35:00
12:15 PM,90.0,76.3,64,30.02,10.0,West,4.6,-,N/A,,Mostly Cloudy,270,2013-08-29 17:15:00
12:55 PM,91.2,76.1,61,30.01,10.0,Calm,Calm,-,N/A,,Scattered Clouds,0,2013-08-29 17:55:00
1:15 PM,91.6,77.4,63,30.01,10.0,Calm,Calm,-,N/A,,Scattered Clouds,0,2013-08-29 18:15:00
1:35 PM,90.7,77.4,65,30.00,10.0,Calm,Calm,-,N/A,,Mostly Cloudy,0,2013-08-29 18:35:00
1:55 PM,91.4,77.4,63,30.00,10.0,NNE,4.6,-,N/A,,Mostly Cloudy,30,2013-08-29 18:55:00
2:15 PM,90.7,77.7,66,30.00,10.0,NNE,3.5,-,N/A,,Mostly Cloudy,20,2013-08-29 19:15:00
2:35 PM,92.3,79.0,65,29.99,10.0,WNW,5.8,-,N/A,,Scattered Clouds,290,2013-08-29 19:35:00
2:55 PM,92.1,77.9,63,29.98,10.0,Calm,Calm,-,N/A,,Clear,0,2013-08-29 19:55:00
3:15 PM,92.8,77.9,62,29.98,10.0,West,6.9,-,N/A,,Clear,280,2013-08-29 20:15:00
3:35 PM,93.2,78.8,63,29.96,10.0,WNW,8.1,-,N/A,,Mostly Cloudy,290,2013-08-29 20:35:00
3:55 PM,83.5,75.7,77,29.97,10.0,ENE,13.8,21.9,N/A,,Mostly Cloudy,70,2013-08-29 20:55:00
4:15 PM,84.2,76.3,77,29.97,10.0,Calm,Calm,-,N/A,,Scattered Clouds,0,2013-08-29 21:15:00
4:35 PM,86.4,77.5,75,29.97,10.0,South,3.5,-,N/A,,Mostly Cloudy,180,2013-08-29 21:35:00
4:55 PM,85.6,78.3,78,29.96,10.0,Calm,Calm,-,N/A,,Mostly Cloudy,0,2013-08-29 21:55:00
5:15 PM,85.1,79.0,82,29.96,10.0,WNW,9.2,-,N/A,,Overcast,290,2013-08-29 22:15:00
5:35 PM,84.6,78.8,83,29.96,10.0,West,5.8,-,N/A,,Overcast,280,2013-08-29 22:35:00
5:55 PM,84.9,78.1,80,29.96,10.0,West,6.9,-,N/A,,Scattered Clouds,280,2013-08-29 22:55:00
6:15 PM,84.6,79.0,83,29.96,10.0,West,3.5,-,N/A,,Scattered Clouds,270,2013-08-29 23:15:00
6:35 PM,84.7,79.0,83,29.96,10.0,Calm,Calm,-,N/A,,Scattered Clouds,0,2013-08-29 23:35:00
6:55 PM,84.7,79.2,83,29.96,10.0,Calm,Calm,-,N/A,,Clear,0,2013-08-29 23:55:00
7:15 PM,83.7,79.5,87,29.97,10.0,Calm,Calm,-,N/A,,Clear,0,2013-08-30 00:15:00
7:35 PM,83.7,79.0,86,29.97,10.0,Calm,Calm,-,N/A,,Clear,0,2013-08-30 00:35:00
7:55 PM,83.3,79.2,87,29.97,10.0,Calm,Calm,-,N/A,,Clear,0,2013-08-30 00:55:00
8:15 PM,81.7,79.5,93,29.98,10.0,Calm,Calm,-,N/A,,Clear,0,2013-08-30 01:15:00
8:35 PM,80.8,79.2,95,29.98,7.0,Calm,Calm,-,N/A,,Clear,0,2013-08-30 01:35:00
8:55 PM,80.6,79.3,96,29.98,7.0,Calm,Calm,-,N/A,,Scattered Clouds,0,2013-08-30 01:55:00
9:15 PM,80.1,79.5,98,29.98,5.0,Calm,Calm,-,N/A,,Clear,0,2013-08-30 02:15:00
9:35 PM,80.1,79.3,98,29.98,5.0,Calm,Calm,-,N/A,,Clear,0,2013-08-30 02:35:00
9:55 PM,79.0,78.6,99,29.98,5.0,Calm,Calm,-,N/A,,Clear,0,2013-08-30 02:55:00
10:15 PM,79.2,79.0,99,29.98,5.0,Calm,Calm,-,N/A,,Clear,0,2013-08-30 03:15:00
10:35 PM,78.8,78.4,99,29.98,3.0,WSW,3.5,-,N/A,,Scattered Clouds,250,2013-08-30 03:35:00
10:55 PM,78.6,78.6,100,29.98,3.0,Calm,Calm,-,N/A,,Clear,0,2013-08-30 03:55:00
11:35 PM,78.6,78.6,100,29.97,4.0,Calm,Calm,-,N/A,,Mostly Cloudy,0,2013-08-30 04:35:00
11:55 PM,79.0,79.0,100,29.97,4.0,Calm,Calm,-,N/A,,Overcast,0,2013-08-30 04:55:00